Vertical_Velocity
0 -3 -1 3 -2 6 6 3 0 2 9 3 3 -9 8 8 -1 2 -4 4 -0 -4 1 3 0 2 -2 0 1 -0 -2 2 -4 -1 1 1 -2 1 -0 1 -1 -1 0
-3 2 3 3 6 5 4 4 3 6 5 1 3 -7 0 1 17 -2 4 -13 1 2 5 1 4 -4 1 2 -3 0 1 2 -8 3 2 1 -1 -4 -1 -5 -0 -2 -3
2 -2 -1 3 4 2 5 -0 5 8 4 -2 -1 -6 -6 10 1 8 4 1 12 -8 -3 1 -1 -2 -0 1 -4 5 -0 -6 -0 2 -3 -0 -3 0 -2 0 0 -0 2
2 3 3 2 5 3 2 3 1 2 1 -2 -12 1 3 -2 2 5 -3 -8 8 3 -3 2 1 -3 -3 -1 1 1 -9 -1 -1 -6 -3 -1 -1 1 -1 -8 -5 -1 -4
3 7 7 8 5 4 3 3 1 -4 -5 -1 -8 5 0 -5 3 1 5 6 4 -5 -3 3 -7 6 -8 6 -7 -4 -1 -1 -2 -2 1 1 2 -3 -3 -6 -4 -11 -1
4 2 -2 -3 -1 4 5 3 -4 -5 3 -2 1 2 2 -0 5 9 4 -1 -0 1 -4 3 -1 -0 -4 -1 -2 -2 -4 -3 -2 -3 -4 -4 -1 -5 -4 -5 -5 -7 -18
-3 11 1 6 8 8 -3 -3 0 -2 -0 7 4 -6 -5 13 9 -2 -1 2 -2 0 5 1 -4 -1 -3 -6 3 -3 -4 -3 -5 -1 -2 -1 -4 -1 -10 -3 6 2 1
7 10 11 6 -1 -3 -2 1 3 6 6 -3 1 9 5 0 -5 -1 5 -3 6 5 -7 0 1 -4 -2 1 -5 1 -0 -0 0 -1 -1 -1 -2 -2 -0 -1 -2 -6 -5
-4 -3 -3 -2 -4 1 2 3 5 -6 -1 -4 -1 -1 -2 -8 7 1 2 5 2 -6 -3 -0 6 -3 -0 -7 4 -4 -2 -2 -1 -1 -2 -3 4 1 1 -3 -1 -4 -7
2 -2 -3 -2 2 6 8 1 -3 1 -1 5 1 0 1 2 3 4 5 -7 -2 1 3 2 0 -3 -3 1 -3 -2 2 -1 -1 3 2 7 -1 1 -1 2 1 -1 1
3 1 2 4 2 -1 -3 -1 -3 -4 -5 -2 4 4 4 4 -1 -2 1 9 -1 -1 -1 -5 -5 3 4 -7 0 -4 -0 2 1 -3 1 -4 0 1 3 5 3 1 1
2 1 2 3 -0 -2 -2 -1 -0 -3 0 0 2 -1 -1 -3 -2 5 4 -5 1 -1 -5 1 3 -4 -3 -8 0 2 -1 1 -9 -2 -2 1 -1 1 2 -1 -0 1 2
-1 1 -1 -6 0 2 -1 -3 -4 1 2 -0 -3 -3 -2 3 5 -1 4 -4 1 -0 -2 2 -5 -2 -1 3 -2 -1 -1 -1 -4 -2 -0 0 1 -2 -4 -2 -1 0 -1
-1 0 2 -4 -1 -1 -1 1 2 -2 -2 0 -0 -0 -0 -1 -1 3 4 -2 -3 -1 -4 -6 4 -2 0 -1 -3 -0 -0 -2 -1 1 1 -0 -2 -2 -4 -1 -3 -3 -6
-1 -1 -3 -1 0 -2 4 1 -0 3 5 -1 -1 1 -0 4 1 -0 1 2 -0 -3 1 0 -3 -1 -3 -3 1 1 0 2 3 -1 -4 1 0 -4 -5 -2 -0 -0 -3
-6 -0 0 -1 -0 1 -1 -3 5 10 8 5 3 5 -4 -5 -3 -1 -1 -3 -3 -1 -2 -5 -3 -1 -3 0 2 2 3 0 -2 -1 4 1 -2 -4 -2 -1 -1 -0 0
-3 -7 -6 -3 -1 -2 -1 -2 -7 -4 -2 1 -1 3 0 2 3 -1 -3 -1 -1 -3 -3 -2 -2 1 1 1 -1 -1 -1 0 0 2 -1 -3 -1 1 -1 -2 -0 2 -3
4 4 -0 -2 -1 -3 -3 -4 1 0 -3 -5 -3 2 -3 -2 0 2 2 -0 -5 -3 0 0 -0 -1 -1 -2 1 -0 -1 0 -0 -2 -1 -0 -0 -3 -3 -1 -2 -1 -2
1 2 4 3 3 3 1 2 5 2 2 3 0 -1 -1 -1 -0 -1 -2 -1 2 -0 -0 -1 -2 -2 2 3 -2 -1 -2 -2 -2 -2 -1 -2 -1 -1 -3 -0 -1 0 5
3 4 2 1 -1 1 2 -1 -3 -1 -1 -1 0 2 1 -0 -1 1 2 1 -3 0 1 -3 -1 3 -2 -4 -1 -3 -2 1 1 -1 -2 -1 1 -0 0 -1 1 -1 -1
1 0 3 2 0 1 2 2 3 2 2 2 2 1 2 -0 1 -0 -1 -0 2 -0 -2 -1 1 -1 -0 -0 -1 -0 -1 -3 -1 -1 -1 -1 -0 -1 1 0 0 1 1
1 1 1 0 1 -1 0 0 1 1 -0 1 2 2 2 -0 1 1 1 1 -1 -1 0 -1 2 2 1 -0 -1 -1 -1 -0 -0 -1 -1 -0 -1 -0 1 -0 1 0 0
1 0 -0 1 1 1 -1 -0 -1 -0 2 5 3 2 0 1 1 0 -1 -1 -1 0 2 1 0 -2 -2 -2 1 1 -1 -2 -1 -0 0 -1 -1 -1 1 -1 -1 -3 -0
1 1 3 2 1 1 1 2 3 4 1 0 0 -0 1 3 -0 -1 -1 0 -0 1 2 1 -0 -1 1 0 0 -0 0 0 0 1 2 -1 -0 1 1 1 2 -1 0
-0 -0 -0 1 1 1 1 2 1 3 2 2 2 1 2 1 -0 0 -4 -1 -0 1 4 0 -0 0 -0 -1 -1 -1 -1 -2 -0 -1 -1 -3 -0 2 1 1 1 -1 1
0 0 1 1 0 0 2 0 -0 2 1 2 1 1 -0 -1 -1 -1 2 0 2 1 -0 -0 -0 -0 1 1 1 1 1 0 1 1 2 1 3 -0 -1 -1 -3 -1 2
Height
1382 1385 1391 1398 1405 1412 1417 1423 1430 1436 1442 1448 1456 1464 1471 1475 1479 1480 1484 1489 1495 1503 1507 1508 1509 1511 1515 1516 1517 1518 1518 1518 1518 1521 1520 1518 1517 1515 1514 1512 1511 1508 1504
1385 1389 1394 1399 1405 1412 1417 1423 1430 1435 1442 1449 1455 1465 1471 1476 1478 1480 1481 1489 1499 1502 1505 1507 1509 1511 1514 1516 1516 1516 1517 1515 1517 1518 1515 1515 1513 1512 1510 1508 1506 1503 1501
1389 1392 1396 1401 1406 1411 1416 1422 1428 1435 1441 1450 1458 1465 1471 1476 1478 1479 1484 1494 1496 1500 1505 1508 1509 1511 1514 1515 1516 1516 1514 1513 1515 1513 1514 1513 1511 1509 1506 1505 1502 1500 1497
1390 1392 1396 1400 1405 1412 1416 1423 1428 1437 1444 1451 1457 1466 1472 1476 1479 1484 1485 1495 1496 1497 1505 1507 1507 1511 1514 1514 1514 1512 1513 1512 1512 1511 1512 1509 1508 1505 1502 1498 1497 1494 1490
1389 1392 1395 1399 1406 1411 1416 1424 1432 1440 1447 1454 1461 1468 1475 1478 1483 1486 1489 1494 1495 1498 1506 1505 1509 1510 1512 1513 1513 1512 1512 1512 1510 1509 1509 1507 1503 1500 1498 1496 1492 1490 1484
1385 1390 1395 1401 1408 1412 1418 1426 1435 1443 1451 1458 1464 1471 1476 1482 1485 1488 1489 1495 1497 1502 1504 1506 1507 1509 1512 1512 1511 1511 1510 1509 1508 1508 1505 1505 1500 1498 1496 1493 1488 1485 1478
1385 1390 1395 1403 1408 1415 1422 1429 1437 1445 1453 1460 1467 1474 1481 1483 1484 1487 1494 1497 1499 1502 1504 1505 1507 1509 1509 1512 1512 1508 1508 1507 1507 1504 1503 1500 1498 1494 1493 1489 1485 1479 1475
1392 1397 1401 1406 1414 1420 1428 1435 1442 1450 1456 1464 1472 1478 1480 1482 1488 1493 1495 1498 1499 1501 1504 1505 1506 1509 1509 1511 1510 1509 1507 1505 1504 1501 1500 1498 1494 1492 1489 1486 1480 1475 1471
1404 1408 1411 1415 1420 1426 1433 1440 1447 1453 1462 1468 1474 1479 1482 1488 1493 1494 1495 1498 1498 1501 1504 1507 1508 1507 1508 1508 1508 1507 1505 1503 1501 1499 1497 1495 1492 1489 1485 1481 1476 1470 1464
1412 1415 1419 1423 1428 1433 1439 1445 1452 1460 1467 1473 1477 1483 1488 1490 1491 1494 1497 1498 1500 1502 1505 1507 1507 1506 1508 1506 1506 1505 1503 1500 1499 1495 1494 1491 1488 1484 1480 1477 1471 1467 1463
1418 1421 1425 1431 1435 1440 1446 1453 1459 1465 1470 1476 1481 1484 1488 1491 1494 1497 1498 1499 1501 1502 1504 1505 1507 1505 1503 1504 1505 1503 1499 1497 1494 1494 1490 1487 1484 1480 1476 1472 1469 1465 1461
1424 1428 1433 1437 1442 1447 1452 1457 1463 1468 1473 1478 1482 1485 1490 1493 1496 1498 1500 1501 1502 1502 1503 1505 1504 1504 1502 1503 1503 1498 1495 1492 1491 1490 1486 1483 1478 1474 1470 1467 1464 1462 1458
1430 1434 1438 1443 1447 1452 1456 1460 1466 1472 1476 1480 1485 1488 1491 1494 1497 1499 1500 1501 1502 1502 1503 1504 1504 1502 1504 1500 1498 1496 1492 1488 1487 1486 1481 1476 1471 1468 1465 1462 1459 1456 1452
1435 1440 1444 1449 1453 1458 1463 1467 1471 1475 1479 1483 1486 1489 1493 1495 1497 1499 1500 1500 1501 1503 1503 1504 1502 1500 1500 1497 1495 1492 1489 1486 1483 1478 1474 1470 1466 1462 1460 1457 1454 1450 1445
1439 1443 1448 1453 1457 1461 1466 1471 1475 1479 1483 1485 1488 1491 1492 1495 1497 1499 1499 1500 1500 1502 1503 1501 1500 1499 1497 1495 1494 1489 1486 1482 1478 1473 1470 1465 1461 1458 1455 1453 1449 1445 1440
1442 1446 1451 1455 1459 1464 1468 1472 1478 1482 1485 1487 1489 1492 1493 1495 1497 1499 1499 1500 1501 1501 1500 1499 1498 1497 1495 1493 1489 1486 1481 1477 1473 1470 1465 1461 1457 1455 1451 1448 1445 1441 1436
1446 1449 1453 1457 1461 1464 1469 1472 1474 1479 1483 1486 1490 1492 1494 1496 1497 1497 1499 1499 1499 1499 1498 1497 1496 1494 1491 1488 1484 1480 1476 1473 1469 1465 1461 1458 1454 1450 1447 1443 1440 1436 1431
1449 1452 1455 1459 1462 1466 1470 1474 1477 1479 1482 1485 1489 1491 1493 1495 1496 1497 1497 1497 1497 1496 1496 1495 1493 1490 1487 1484 1480 1475 1471 1468 1465 1461 1457 1454 1450 1446 1442 1438 1435 1432 1427
1449 1453 1457 1460 1464 1468 1471 1475 1478 1480 1483 1485 1487 1489 1491 1493 1494 1495 1495 1495 1495 1494 1493 1491 1489 1486 1482 1479 1475 1470 1467 1464 1460 1456 1452 1449 1446 1442 1438 1434 1430 1427 1423
1450 1453 1457 1460 1464 1468 1471 1474 1476 1479 1481 1484 1486 1488 1489 1491 1491 1492 1492 1492 1491 1490 1488 1486 1484 1481 1478 1474 1469 1466 1462 1459 1455 1451 1447 1443 1440 1437 1432 1429 1425 1421 1418
1449 1452 1456 1460 1463 1467 1470 1473 1475 1478 1480 1482 1484 1485 1486 1487 1488 1488 1488 1487 1486 1486 1484 1482 1479 1476 1473 1469 1464 1461 1457 1452 1448 1444 1441 1438 1435 1430 1428 1423 1419 1416 1412
1449 1452 1456 1459 1462 1466 1469 1472 1474 1475 1477 1479 1481 1482 1483 1484 1484 1484 1484 1483 1483 1481 1479 1477 1474 1471 1467 1464 1460 1455 1450 1446 1442 1439 1435 1432 1429 1425 1421 1417 1414 1410 1406
1448 1451 1455 1458 1461 1464 1466 1469 1471 1473 1475 1476 1478 1479 1479 1480 1480 1480 1480 1479 1478 1476 1473 1470 1468 1465 1462 1457 1453 1448 1443 1439 1436 1432 1428 1425 1422 1418 1415 1411 1408 1404 1400
1447 1451 1454 1457 1460 1462 1465 1467 1469 1470 1472 1473 1474 1475 1475 1476 1475 1475 1475 1474 1472 1470 1467 1465 1461 1458 1454 1450 1446 1442 1438 1434 1431 1427 1423 1419 1415 1412 1409 1405 1402 1398 1394
1447 1450 1453 1456 1459 1461 1464 1465 1467 1468 1468 1469 1469 1470 1471 1471 1470 1470 1470 1467 1465 1464 1462 1458 1455 1451 1447 1443 1439 1435 1431 1428 1424 1420 1415 1412 1408 1405 1403 1400 1396 1392 1388
1447 1450 1452 1455 1457 1459 1461 1462 1463 1464 1464 1464 1465 1465 1465 1465 1465 1463 1462 1460 1459 1457 1454 1450 1447 1444 1440 1436 1432 1428 1424 1421 1417 1414 1410 1407 1404 1400 1397 1394 1390 1386 1381